Weather History for Sacramento / Mc Clellan, CA

Change the Weather History Date:

Saturday, February 22, 2014

  Actual Average (KMHR) Record (KMHR)
Temperature  
Mean Temperature 54 °F -  
Max Temperature 69 °F 57 °F 80 °F (2012)
Min Temperature 39 °F 39 °F 28 °F (2011)
Degree Days  
Heating Degree Days 11    
Growing Degree Days 4 (Base 50)    
Moisture  
Dew Point 40 °F    
Average Humidity 61    
Maximum Humidity 93    
Minimum Humidity 31    
Precipitation  
Precipitation 0.00 in - - ()
Sea Level Pressure  
Sea Level Pressure 29.98 in    
Wind  
Wind Speed 2 mph (NNW)    
Max Wind Speed 8 mph    
Max Gust Speed -    
Visibility 10 miles    
Events      
Averages and records for this station are not official NWS values.
T = Trace of Precipitation, MM = Missing Value Source: NWS Daily Summary

Daily Weather History Graph

Daily Weather History Graph

Search for Another Location

Airport:

Trip Planner

Search our weather history database for the weather conditions in past years. The results will help you decide how hot, cold, wet, or windy it might be!

Date:

Astronomy

Feb. 22, 2014 Rise Set
Actual Time 6:47 AM PST 5:51 PM PST
Civil Twilight 6:20 AM PST 6:18 PM PST
Nautical Twilight 5:49 AM PST 6:49 PM PST
Astronomical Twilight 5:18 AM PST 7:19 PM PST
Moon 12:46 AM PST (2/22) 11:08 AM PST (2/22)
Length of Visible Light 11h 57m
Length of Day
11h 03m
Waning Gibbous, 49% of the Moon is Illuminated
Feb 22
Waning Gibbous
Mar 1
New
Mar 8
First Quarter
Mar 16
Full
Mar 23
Last Quarter

Hourly Weather History & Observations

Time (PST) Temp. Windchill Dew Point Humidity Pressure Visibility Wind Dir Wind Speed Gust Speed Precip Events Conditions
12:15 AM 50.0 °F - 39.2 °F 66% 30.01 in 10.0 mi ENE 3.5 mph - N/A   Clear
12:35 AM 48.2 °F - 39.2 °F 71% 30.01 in 10.0 mi Calm Calm - N/A   Clear
12:55 AM 48.2 °F - 39.2 °F 71% 30.01 in 10.0 mi Calm Calm - N/A   Clear
1:15 AM 48.2 °F - 39.2 °F 71% 30.01 in 10.0 mi Calm Calm - N/A   Clear
1:35 AM 46.4 °F - 39.2 °F 76% 30.01 in 10.0 mi Calm Calm - N/A   Clear
1:55 AM 46.4 °F - 39.2 °F 76% 30.01 in 10.0 mi Calm Calm - N/A   Clear
2:15 AM 46.4 °F 45.2 °F 39.2 °F 76% 30.01 in 10.0 mi SE 3.5 mph - N/A   Clear
2:35 AM 46.4 °F 45.2 °F 39.2 °F 76% 30.01 in 10.0 mi South 3.5 mph - N/A   Clear
2:55 AM 46.4 °F - 39.2 °F 76% 30.01 in 10.0 mi Calm Calm - N/A   Clear
3:15 AM 46.4 °F - 39.2 °F 76% 30.01 in 10.0 mi Calm Calm - N/A   Clear
3:35 AM 46.4 °F - 39.2 °F 76% 30.01 in 10.0 mi Calm Calm - N/A   Clear
3:55 AM 44.6 °F - 39.2 °F 81% 30.01 in 10.0 mi Calm Calm - N/A   Clear
4:15 AM 41.0 °F - 39.2 °F 93% 30.00 in 10.0 mi Calm Calm - N/A   Clear
4:35 AM 41.0 °F - 37.4 °F 87% 30.00 in 10.0 mi Calm Calm - N/A   Clear
4:55 AM 44.6 °F - 37.4 °F 76% 30.00 in 10.0 mi Calm Calm - N/A   Clear
5:15 AM 44.6 °F - 39.2 °F 81% 30.00 in 10.0 mi Calm Calm - N/A   Clear
5:35 AM 44.6 °F - 39.2 °F 81% 30.00 in 10.0 mi Calm Calm - N/A   Clear
5:55 AM 41.0 °F - 37.4 °F 87% 30.01 in 10.0 mi Calm Calm - N/A   Clear
6:15 AM 39.2 °F 37.0 °F 37.4 °F 93% 30.00 in 10.0 mi North 3.5 mph - N/A   Clear
6:35 AM 39.2 °F - 37.4 °F 93% 30.01 in 10.0 mi Calm Calm - N/A   Clear
6:55 AM 41.0 °F 36.4 °F 37.4 °F 87% 30.01 in 10.0 mi North 6.9 mph - N/A   Clear
7:15 AM 41.0 °F 39.0 °F 37.4 °F 87% 30.01 in 10.0 mi North 3.5 mph - N/A   Clear
7:35 AM 42.8 °F - 39.2 °F 87% 30.02 in 10.0 mi Calm Calm - N/A   Clear
7:55 AM 44.6 °F - 41.0 °F 87% 30.02 in 10.0 mi Calm Calm - N/A   Clear
8:15 AM 48.2 °F - 41.0 °F 76% 30.03 in 10.0 mi North 3.5 mph - N/A   Clear
8:35 AM 50.0 °F - 41.0 °F 71% 30.03 in 10.0 mi North 3.5 mph - N/A   Clear
8:55 AM 51.8 °F - 41.0 °F 67% 30.03 in 10.0 mi NNW 4.6 mph - N/A   Clear
9:15 AM 53.6 °F - 42.8 °F 67% 30.03 in 10.0 mi NW 3.5 mph - N/A   Clear
9:35 AM 55.4 °F - 42.8 °F 63% 30.03 in 10.0 mi NNW 3.5 mph - N/A   Clear
9:55 AM 55.4 °F - 41.0 °F 58% 30.03 in 10.0 mi Calm Calm - N/A   Clear
10:15 AM 57.2 °F - 41.0 °F 55% 30.03 in 10.0 mi NW 4.6 mph - N/A   Clear
10:35 AM 57.2 °F - 41.0 °F 55% 30.03 in 10.0 mi WNW 3.5 mph - N/A   Clear
10:55 AM 59.0 °F - 41.0 °F 51% 30.03 in 10.0 mi Calm Calm - N/A   Clear
11:15 AM 60.8 °F - 41.0 °F 48% 30.02 in 10.0 mi Calm Calm - N/A   Clear
11:35 AM 60.8 °F - 41.0 °F 48% 30.02 in 10.0 mi WSW 4.6 mph - N/A   Clear
11:55 AM 62.6 °F - 41.0 °F 45% 30.01 in 10.0 mi West 3.5 mph - N/A   Clear
12:15 PM 64.4 °F - 41.0 °F 42% 30.00 in 10.0 mi WSW 3.5 mph - N/A   Clear
12:35 PM 64.4 °F - 39.2 °F 40% 29.99 in 10.0 mi NW 3.5 mph - N/A   Clear
12:55 PM 64.4 °F - 41.0 °F 42% 29.97 in 10.0 mi WNW 5.8 mph - N/A   Clear
1:15 PM 66.2 °F - 41.0 °F 40% 29.96 in 10.0 mi WNW 5.8 mph - N/A   Clear
1:35 PM 66.2 °F - 41.0 °F 40% 29.96 in 10.0 mi WNW 5.8 mph - N/A   Clear
1:55 PM 66.2 °F - 41.0 °F 40% 29.95 in 10.0 mi NW 6.9 mph - N/A   Clear
2:15 PM 68.0 °F - 39.2 °F 35% 29.94 in 10.0 mi West 6.9 mph - N/A   Clear
2:35 PM 68.0 °F - 39.2 °F 35% 29.94 in 10.0 mi NNW 5.8 mph - N/A   Clear
2:55 PM 68.0 °F - 37.4 °F 33% 29.93 in 10.0 mi Calm Calm - N/A   Clear
3:15 PM 69.8 °F - 39.2 °F 33% 29.93 in 10.0 mi WNW 8.1 mph - N/A   Clear
3:35 PM 69.8 °F - 37.4 °F 31% 29.93 in 10.0 mi NNW 4.6 mph - N/A   Clear
3:55 PM 69.8 °F - 39.2 °F 33% 29.92 in 10.0 mi NNW 5.8 mph - N/A   Clear
4:15 PM 68.0 °F - 37.4 °F 33% 29.92 in 10.0 mi NNW 5.8 mph - N/A   Clear
4:35 PM 68.0 °F - 39.2 °F 35% 29.92 in 10.0 mi North 6.9 mph - N/A   Clear
4:55 PM 68.0 °F - 39.2 °F 35% 29.92 in 10.0 mi North 3.5 mph - N/A   Clear
5:15 PM 68.0 °F - 39.2 °F 35% 29.92 in 10.0 mi North 3.5 mph - N/A   Clear
5:35 PM 66.2 °F - 39.2 °F 37% 29.92 in 10.0 mi North 4.6 mph - N/A   Clear
5:55 PM 64.4 °F - 39.2 °F 40% 29.92 in 10.0 mi North 5.8 mph - N/A   Clear
6:15 PM 62.6 °F - 41.0 °F 45% 29.92 in 10.0 mi North 4.6 mph - N/A   Clear
6:35 PM 60.8 °F - 41.0 °F 48% 29.92 in 10.0 mi NNE 3.5 mph - N/A   Clear
6:55 PM 59.0 °F - 41.0 °F 51% 29.92 in 10.0 mi Calm Calm - N/A   Clear
7:15 PM 55.4 °F - 41.0 °F 58% 29.92 in 10.0 mi Calm Calm - N/A   Clear
7:35 PM 55.4 °F - 41.0 °F 58% 29.92 in 10.0 mi Calm Calm - N/A   Clear
7:55 PM 55.4 °F - 41.0 °F 58% 29.93 in 10.0 mi Calm Calm - N/A   Clear
8:15 PM 55.4 °F - 41.0 °F 58% 29.93 in 10.0 mi SSW 5.8 mph - N/A   Clear
8:35 PM 53.6 °F - 41.0 °F 62% 29.94 in 10.0 mi Calm Calm - N/A   Clear
8:55 PM 53.6 °F - 41.0 °F 62% 29.94 in 10.0 mi Calm Calm - N/A   Clear
9:15 PM 53.6 °F - 41.0 °F 62% 29.95 in 10.0 mi Calm Calm - N/A   Clear
9:35 PM 50.0 °F - 41.0 °F 71% 29.95 in 10.0 mi Calm Calm - N/A   Clear
9:55 PM 53.6 °F - 41.0 °F 62% 29.95 in 10.0 mi ESE 3.5 mph - N/A   Clear
10:15 PM 50.0 °F - 41.0 °F 71% 29.96 in 10.0 mi East 4.6 mph - N/A   Clear
10:35 PM 50.0 °F - 41.0 °F 71% 29.96 in 10.0 mi East 3.5 mph - N/A   Clear
10:55 PM 51.8 °F - 41.0 °F 67% 29.96 in 10.0 mi ESE 6.9 mph - N/A   Clear
11:15 PM 53.6 °F - 41.0 °F 62% 29.96 in 10.0 mi ESE 8.1 mph - N/A   Clear
11:35 PM 51.8 °F - 41.0 °F 67% 29.96 in 10.0 mi ESE 5.8 mph - N/A   Clear
11:55 PM 50.0 °F - 41.0 °F 71% 29.96 in 10.0 mi SE 4.6 mph - N/A   Clear